Azamara Journey — 9HOB8 — position and weather

sailwx.info

Track history (hours):
 
Tides and Currents Weather Stations Pressure Air Temp Water Temp Dewpoint Dewpoint Depression Visibility Wind Speed Wind Dir Waves Ship Positions

Azamara Journey

Last reported at 2017-May-29 17:00 UTC. Time now 2017-May-29 16:59 UTC.
Position N 37°35' E 023°43'.

Type: Ship. MMSI: 256204000.

Date/timePositionNaut miles runAvg speedWind from/ knotsBaromVisibWave heightAir tempDewpointWater temp
2017-May-29 17:00N 37°35' E 023°43'714.2
2017-May-29 16:30N 37°42' E 023°41'714.3
2017-May-29 16:00N 37°48' E 023°37'713.8
2017-May-29 15:30N 37°55' E 023°37'2 3.1
2017-May-29 15:00N 37°56' E 023°38'0 0.0
2017-May-29 14:29N 37°56' E 023°38'0 0.0
2017-May-29 13:29N 37°56' E 023°38'0 0.0
2017-May-29 12:59N 37°56' E 023°38'0 0.0
2017-May-29 12:29N 37°56' E 023°38'0 0.0
2017-May-29 11:59N 37°56' E 023°38'0 0.0
2017-May-29 11:29N 37°56' E 023°38'0 0.0
2017-May-29 10:59N 37°56' E 023°38'0 0.0
2017-May-29 10:29N 37°56' E 023°38'0 0.0
2017-May-29 09:47N 37°56' E 023°38'0 0.0
2017-May-29 09:29N 37°56' E 023°38'0 0.0
2017-May-29 08:59N 37°56' E 023°38'0 0.0
2017-May-29 08:29N 37°56' E 023°38'0 0.0
2017-May-29 07:59N 37°56' E 023°38'0 0.0
2017-May-29 07:29N 37°56' E 023°38'0 0.0
2017-May-29 06:59N 37°56' E 023°38'0 0.0
2017-May-29 06:29N 37°56' E 023°38'0 0.0
2017-May-29 05:56N 37°56' E 023°38'0 0.0
2017-May-29 05:29N 37°56' E 023°38'0 0.0
2017-May-29 04:53N 37°56' E 023°38'0 0.0
2017-May-29 04:29N 37°56' E 023°38'0 0.0
2017-May-29 03:59N 37°56' E 023°38'0 0.0
2017-May-29 03:29N 37°56' E 023°38'0 0.0
2017-May-29 02:59N 37°56' E 023°38'0 0.0
2017-May-29 02:29N 37°56' E 023°38'0 0.0
2017-May-29 01:59N 37°56' E 023°38'0 0.0
2017-May-29 01:30N 37°56' E 023°38'1 2.8
2017-May-29 01:01N 37°55' E 023°37'510.9
2017-May-29 00:30N 37°50' E 023°39'612.8
2017-May-29 00:00N 37°44' E 023°43'613.0
2017-May-28 23:31N 37°39' E 023°46'43914.1
2017-May-27 16:20N 34°47' E 032°07'617.9
2017-May-27 16:00N 34°46' E 032°14'9 3.9
2017-May-27 13:47N 34°45' E 032°24'0 0.0
2017-May-27 12:41N 34°45' E 032°24'0 0.0
2017-May-27 12:23N 34°45' E 032°24'0 0.0
2017-May-27 11:59N 34°45' E 032°24'0 0.0
2017-May-27 11:20N 34°45' E 032°24'0 0.0
2017-May-27 10:59N 34°45' E 032°24'49 4.9
2017-May-27 00:57N 33°56' E 032°30'614.0
2017-May-27 00:30N 33°50' E 032°30'713.7
2017-May-26 23:58N 33°43' E 032°32'613.9
2017-May-26 23:30N 33°36' E 032°32'714.2
2017-May-26 23:00N 33°29' E 032°34'816.1
2017-May-26 22:30N 33°21' E 032°35'816.0
2017-May-26 22:00N 33°13' E 032°36'816.0
2017-May-26 21:30N 33°05' E 032°37'915.9
2017-May-26 20:55N 32°56' E 032°38'5015.3
2017-May-26 17:38N 32°06' E 032°45'214.8
2017-May-26 17:30N 32°04' E 032°45'714.9
2017-May-26 17:00N 31°57' E 032°47'913.8
2017-May-26 16:21N 31°48' E 032°47'412.7
2017-May-26 16:00N 31°45' E 032°43'815.0
2017-May-26 15:30N 31°41' E 032°35'1314.5
2017-May-26 14:37N 31°34' E 032°23'914.4
2017-May-26 14:00N 31°25' E 032°24'1214.1
2017-May-26 13:09N 31°14' E 032°21'1 7.6
2017-May-26 12:58N 31°12' E 032°20'4 6.9
2017-May-26 12:27N 31°09' E 032°19'4 9.2
2017-May-26 12:00N 31°05' E 032°19'5 9.3
2017-May-26 11:30N 31°00' E 032°19'510.0
2017-May-26 11:00N 30°55' E 032°19'  
Track history (hours):
 
Tides and Currents Weather Stations Pressure Air Temp Water Temp Dewpoint Dewpoint Depression Visibility Wind Speed Wind Dir Waves Ship Positions

Azamara Journey

Last reported at 2017-May-29 17:00 UTC. Time now 2017-May-29 16:59 UTC.
Position N 37°35' E 023°43'.

Type: Ship. MMSI: 256204000.

Date/timePositionNaut miles runAvg speedWind from/ knotsBaromVisibWave heightAir tempDewpointWater temp
2017-May-29 17:00N 37°35' E 023°43'714.2
2017-May-29 16:30N 37°42' E 023°41'714.3
2017-May-29 16:00N 37°48' E 023°37'713.8
2017-May-29 15:30N 37°55' E 023°37'2 3.1
2017-May-29 15:00N 37°56' E 023°38'0 0.0
2017-May-29 14:29N 37°56' E 023°38'0 0.0
2017-May-29 13:29N 37°56' E 023°38'0 0.0
2017-May-29 12:59N 37°56' E 023°38'0 0.0
2017-May-29 12:29N 37°56' E 023°38'0 0.0
2017-May-29 11:59N 37°56' E 023°38'0 0.0
2017-May-29 11:29N 37°56' E 023°38'0 0.0
2017-May-29 10:59N 37°56' E 023°38'0 0.0
2017-May-29 10:29N 37°56' E 023°38'0 0.0
2017-May-29 09:47N 37°56' E 023°38'0 0.0
2017-May-29 09:29N 37°56' E 023°38'0 0.0
2017-May-29 08:59N 37°56' E 023°38'0 0.0
2017-May-29 08:29N 37°56' E 023°38'0 0.0
2017-May-29 07:59N 37°56' E 023°38'0 0.0
2017-May-29 07:29N 37°56' E 023°38'0 0.0
2017-May-29 06:59N 37°56' E 023°38'0 0.0
2017-May-29 06:29N 37°56' E 023°38'0 0.0
2017-May-29 05:56N 37°56' E 023°38'0 0.0
2017-May-29 05:29N 37°56' E 023°38'0 0.0
2017-May-29 04:53N 37°56' E 023°38'0 0.0
2017-May-29 04:29N 37°56' E 023°38'0 0.0
2017-May-29 03:59N 37°56' E 023°38'0 0.0
2017-May-29 03:29N 37°56' E 023°38'0 0.0
2017-May-29 02:59N 37°56' E 023°38'0 0.0
2017-May-29 02:29N 37°56' E 023°38'0 0.0
2017-May-29 01:59N 37°56' E 023°38'0 0.0
2017-May-29 01:30N 37°56' E 023°38'1 2.8
2017-May-29 01:01N 37°55' E 023°37'510.9
2017-May-29 00:30N 37°50' E 023°39'612.8
2017-May-29 00:00N 37°44' E 023°43'613.0
2017-May-28 23:31N 37°39' E 023°46'43914.1
2017-May-27 16:20N 34°47' E 032°07'617.9
2017-May-27 16:00N 34°46' E 032°14'9 3.9
2017-May-27 13:47N 34°45' E 032°24'0 0.0
2017-May-27 12:41N 34°45' E 032°24'0 0.0
2017-May-27 12:23N 34°45' E 032°24'0 0.0
2017-May-27 11:59N 34°45' E 032°24'0 0.0
2017-May-27 11:20N 34°45' E 032°24'0 0.0
2017-May-27 10:59N 34°45' E 032°24'49 4.9
2017-May-27 00:57N 33°56' E 032°30'614.0
2017-May-27 00:30N 33°50' E 032°30'713.7
2017-May-26 23:58N 33°43' E 032°32'613.9
2017-May-26 23:30N 33°36' E 032°32'714.2
2017-May-26 23:00N 33°29' E 032°34'816.1
2017-May-26 22:30N 33°21' E 032°35'816.0
2017-May-26 22:00N 33°13' E 032°36'816.0
2017-May-26 21:30N 33°05' E 032°37'915.9
2017-May-26 20:55N 32°56' E 032°38'5015.3
2017-May-26 17:38N 32°06' E 032°45'214.8
2017-May-26 17:30N 32°04' E 032°45'714.9
2017-May-26 17:00N 31°57' E 032°47'913.8
2017-May-26 16:21N 31°48' E 032°47'412.7
2017-May-26 16:00N 31°45' E 032°43'815.0
2017-May-26 15:30N 31°41' E 032°35'1314.5
2017-May-26 14:37N 31°34' E 032°23'914.4
2017-May-26 14:00N 31°25' E 032°24'1214.1
2017-May-26 13:09N 31°14' E 032°21'1 7.6
2017-May-26 12:58N 31°12' E 032°20'4 6.9
2017-May-26 12:27N 31°09' E 032°19'4 9.2
2017-May-26 12:00N 31°05' E 032°19'5 9.3
2017-May-26 11:30N 31°00' E 032°19'510.0
2017-May-26 11:00N 30°55' E 032°19'  

Dump ship's entire track history